Voltar ao catálogo

FREGAT DEB

LostUNKNOWN
NORAD 45826·DEBRIS·🇷🇺 Russia

Lançado Jul 18, 2011 de Baikonur Cosmodrome

Loading…

Próximas Passagens (próximas 24 horas)

TLE

ObsoletoSource: Space-Track

Época: Apr 21, 2022, 03:13 UTC

1 45826U 11037BL  22111.13445637  .00357109  00000-0  19276+0 0  9996
2 45826  51.7925 144.7985 1913120 299.3250  42.9760 10.99314909 68682

Acompanhe FREGAT DEB em tempo real com AllMySat

Download on the App Store